| time (UTC) | temp C | wind direction | speed KPH | gust KPH | rain 1hr cm | rain 24hr cm | rain mn cm | humidity % | barometer mb |
| 20260504203118 | 25 | 3 | 4.8 | 8.0 | 0.00 | 0.00 | 0.00 | 99 | 1008.0 |
| 20260504202848 | 24 | 7 | 3.2 | 9.7 | 0.00 | 0.00 | 0.00 | 99 | 1008.0 |
| 20260504202648 | 24 | 5 | 4.8 | 8.0 | 0.00 | 0.00 | 0.00 | 99 | 1008.0 |
| 20260504202418 | 24 | 357 | 4.8 | 4.8 | 0.00 | 0.00 | 0.00 | 99 | 1008.0 |
| 20260504202218 | 24 | 22 | 4.8 | 8.0 | 0.00 | 0.00 | 0.00 | 99 | 1008.0 |
| 20260504202018 | 24 | 8 | 3.2 | 4.8 | 0.00 | 0.00 | 0.00 | 99 | 1008.0 |
| 20260504201748 | 24 | 0 | 3.2 | 8.0 | 0.00 | 0.00 | 0.00 | 99 | 1007.9 |
| 20260504201548 | 24 | 16 | 3.2 | 4.8 | 0.00 | 0.00 | 0.00 | 99 | 1008.0 |
| 20260504201348 | 24 | 18 | 4.8 | 9.7 | 0.00 | 0.00 | 0.00 | 99 | 1008.0 |
| 20260504201118 | 24 | 26 | 3.2 | 8.0 | 0.00 | 0.00 | 0.00 | 99 | 1008.0 |
| 20260504200848 | 24 | 17 | 4.8 | 4.8 | 0.00 | 0.00 | 0.00 | 99 | 1008.1 |
| 20260504200648 | 24 | 1 | 3.2 | 8.0 | 0.00 | 0.00 | 0.00 | 99 | 1008.0 |
| 20260504200418 | 24 | 1 | 4.8 | 12.9 | 0.00 | 0.00 | 0.00 | 99 | 1008.1 |
| 20260504200218 | 24 | 358 | 8.0 | 11.3 | 0.00 | 0.00 | 0.00 | 99 | 1008.0 |
| 20260504200018 | 24 | 5 | 4.8 | 8.0 | 0.00 | 0.00 | 0.00 | 99 | 1008.0 |
| 20260504195818 | 24 | 7 | 4.8 | 8.0 | 0.00 | 0.00 | 0.00 | 99 | 1008.1 |
| 20260504195548 | 23 | 13 | 4.8 | 8.0 | 0.00 | 0.00 | 0.00 | 99 | 1008.1 |
| 20260504195348 | 23 | 1 | 4.8 | 8.0 | 0.00 | 0.00 | 0.00 | 99 | 1008.1 |
| 20260504195148 | 23 | 0 | 4.8 | 8.0 | 0.00 | 0.00 | 0.00 | 99 | 1008.1 |
| 20260504194948 | 23 | 1 | 4.8 | 9.7 | 0.00 | 0.00 | 0.00 | 99 | 1008.1 |
| 20260504194718 | 23 | 14 | 4.8 | 8.0 | 0.00 | 0.00 | 0.00 | 99 | 1008.2 |
| 20260504194448 | 23 | 356 | 4.8 | 8.0 | 0.00 | 0.00 | 0.00 | 99 | 1008.2 |
| 20260504194248 | 23 | 353 | 8.0 | 9.7 | 0.00 | 0.00 | 0.00 | 99 | 1008.2 |
| 20260504194048 | 23 | 15 | 3.2 | 4.8 | 0.00 | 0.00 | 0.00 | 99 | 1008.2 |
| 20260504193848 | 23 | 32 | 4.8 | 8.0 | 0.00 | 0.00 | 0.00 | 99 | 1008.3 |
| 20260504193618 | 23 | 4 | 4.8 | 9.7 | 0.00 | 0.00 | 0.00 | 99 | 1008.2 |
| 20260504193418 | 23 | 14 | 4.8 | 8.0 | 0.00 | 0.00 | 0.00 | 99 | 1008.2 |
| 20260504193218 | 23 | 10 | 8.0 | 9.7 | 0.00 | 0.00 | 0.00 | 99 | 1008.2 |
| 20260504193018 | 23 | 4 | 9.7 | 12.9 | 0.00 | 0.00 | 0.00 | 99 | 1008.2 |
| 20260504192748 | 23 | 10 | 3.2 | 9.7 | 0.00 | 0.00 | 0.00 | 99 | 1008.2 |
| 20260504192518 | 23 | 2 | 4.8 | 8.0 | 0.00 | 0.00 | 0.00 | 99 | 1008.2 |
| 20260504192248 | 23 | 11 | 4.8 | 4.8 | 0.00 | 0.00 | 0.00 | 99 | 1008.2 |
| 20260504192048 | 23 | 5 | 8.0 | 8.0 | 0.00 | 0.00 | 0.00 | 99 | 1008.3 |
| 20260504191818 | 23 | 4 | 4.8 | 9.7 | 0.00 | 0.00 | 0.00 | 99 | 1008.3 |
| 20260504191548 | 23 | 9 | 8.0 | 8.0 | 0.00 | 0.00 | 0.00 | 99 | 1008.3 |
| 20260504191348 | 23 | 12 | 4.8 | 12.9 | 0.00 | 0.00 | 0.00 | 99 | 1008.3 |
| 20260504191148 | 23 | 8 | 4.8 | 4.8 | 0.00 | 0.00 | 0.00 | 99 | 1008.3 |
| 20260504190918 | 23 | 2 | 3.2 | 8.0 | 0.00 | 0.00 | 0.00 | 99 | 1008.4 |
| 20260504190648 | 23 | 20 | 3.2 | 4.8 | 0.00 | 0.00 | 0.00 | 99 | 1008.3 |
| 20260504190448 | 23 | 21 | 3.2 | 8.0 | 0.00 | 0.00 | 0.00 | 99 | 1008.4 |
| 20260504190248 | 23 | 17 | 4.8 | 8.0 | 0.00 | 0.00 | 0.00 | 99 | 1008.4 |
| 20260504190018 | 23 | 12 | 3.2 | 4.8 | 0.00 | 0.00 | 0.00 | 99 | 1008.4 |
| 20260504185818 | 23 | 29 | 1.6 | 4.8 | 0.00 | 0.00 | 0.00 | 99 | 1008.4 |
| 20260504185618 | 23 | 29 | 4.8 | 4.8 | 0.00 | 0.00 | 0.00 | 99 | 1008.4 |
| 20260504185418 | 23 | 24 | 3.2 | 4.8 | 0.00 | 0.00 | 0.00 | 99 | 1008.4 |
| 20260504185218 | 23 | 27 | 4.8 | 4.8 | 0.00 | 0.00 | 0.00 | 99 | 1008.4 |
| 20260504185018 | 23 | 5 | 3.2 | 4.8 | 0.00 | 0.00 | 0.00 | 99 | 1008.5 |
| 20260504184748 | 23 | 5 | 4.8 | 4.8 | 0.00 | 0.00 | 0.00 | 99 | 1008.5 |
| 20260504184518 | 23 | 13 | 1.6 | 4.8 | 0.00 | 0.00 | 0.00 | 99 | 1008.5 |
| 20260504184248 | 23 | 7 | 4.8 | 8.0 | 0.00 | 0.00 | 0.00 | 99 | 1008.5 |
| 20260504184048 | 23 | 0 | 1.6 | 4.8 | 0.00 | 0.00 | 0.00 | 99 | 1008.5 |
| 20260504183848 | 23 | 0 | 3.2 | 3.2 | 0.00 | 0.00 | 0.00 | 99 | 1008.5 |
| 20260504183648 | 23 | 4 | 0.0 | 3.2 | 0.00 | 0.00 | 0.00 | 99 | 1008.6 |
| 20260504183418 | 23 | 5 | 1.6 | 4.8 | 0.00 | 0.00 | 0.00 | 99 | 1008.6 |
| 20260504183218 | 23 | 1 | 0.0 | 3.2 | 0.00 | 0.00 | 0.00 | 99 | 1008.6 |
| 20260504183018 | 23 | 0 | 1.6 | 3.2 | 0.00 | 0.00 | 0.00 | 99 | 1008.6 |
| 20260504182818 | 23 | 0 | 1.6 | 3.2 | 0.00 | 0.00 | 0.00 | 99 | 1008.6 |
| 20260504182548 | 22 | 0 | 1.6 | 3.2 | 0.00 | 0.00 | 0.00 | 99 | 1008.6 |
| 20260504182318 | 22 | 0 | 3.2 | 4.8 | 0.00 | 0.00 | 0.00 | 99 | 1008.6 |
| 20260504182118 | 22 | 17 | 3.2 | 3.2 | 0.00 | 0.00 | 0.00 | 99 | 1008.7 |
| 20260504181918 | 22 | 19 | 1.6 | 3.2 | 0.00 | 0.00 | 0.00 | 99 | 1008.7 |
| 20260504181718 | 22 | 16 | 1.6 | 4.8 | 0.00 | 0.00 | 0.00 | 99 | 1008.6 |
| 20260504181518 | 22 | 31 | 4.8 | 4.8 | 0.00 | 0.00 | 0.00 | 99 | 1008.6 |
| 20260504181248 | 22 | 358 | 4.8 | 8.0 | 0.00 | 0.00 | 0.00 | 99 | 1008.7 |
| 20260504181018 | 22 | 25 | 4.8 | 4.8 | 0.00 | 0.00 | 0.00 | 99 | 1008.6 |
| 20260504180748 | 22 | 17 | 3.2 | 4.8 | 0.00 | 0.00 | 0.00 | 99 | 1008.6 |
| 20260504180518 | 22 | 12 | 3.2 | 4.8 | 0.00 | 0.00 | 0.00 | 99 | 1008.6 |
| 20260504180248 | 22 | 5 | 3.2 | 4.8 | 0.00 | 0.00 | 0.00 | 99 | 1008.6 |
| 20260504180018 | 22 | 0 | 3.2 | 4.8 | 0.00 | 0.00 | 0.00 | 99 | 1008.6 |
| 20260504175748 | 22 | 16 | 4.8 | 4.8 | 0.00 | 0.00 | 0.00 | 99 | 1008.6 |
| 20260504175548 | 22 | 11 | 4.8 | 4.8 | 0.00 | 0.00 | 0.00 | 99 | 1008.6 |
| 20260504175348 | 23 | 6 | 4.8 | 8.0 | 0.00 | 0.00 | 0.00 | 99 | 1008.6 |
| 20260504175118 | 23 | 358 | 8.0 | 9.7 | 0.00 | 0.00 | 0.00 | 99 | 1008.5 |
| 20260504174848 | 23 | 23 | 1.6 | 4.8 | 0.00 | 0.00 | 0.00 | 99 | 1008.5 |
| 20260504174648 | 23 | 21 | 3.2 | 4.8 | 0.00 | 0.00 | 0.00 | 99 | 1008.4 |
| 20260504174448 | 24 | 352 | 1.6 | 8.0 | 0.00 | 0.00 | 0.00 | 99 | 1008.4 |
| 20260504174218 | 23 | 333 | 0.0 | 3.2 | 0.00 | 0.00 | 0.00 | 99 | 1008.4 |
| 20260504174018 | 23 | 335 | 3.2 | 3.2 | 0.00 | 0.00 | 0.00 | 99 | 1008.4 |
| 20260504173818 | 23 | 0 | 0.0 | 3.2 | 0.00 | 0.00 | 0.00 | 99 | 1008.5 |
| 20260504173618 | 23 | 0 | 0.0 | 1.6 | 0.00 | 0.00 | 0.00 | 99 | 1008.5 |
| 20260504173348 | 23 | 330 | 0.0 | 0.0 | 0.00 | 0.00 | 0.00 | 99 | 1008.4 |
| 20260504173148 | 22 | 286 | 0.0 | 0.0 | 0.00 | 0.00 | 0.00 | 99 | 1008.4 |
| 20260504172918 | 22 | 279 | 0.0 | 0.0 | 0.00 | 0.00 | 0.00 | 99 | 1008.4 |
| 20260504172648 | 22 | 358 | 0.0 | 3.2 | 0.00 | 0.00 | 0.00 | 99 | 1008.5 |
| 20260504172418 | 22 | 5 | 0.0 | 3.2 | 0.00 | 0.00 | 0.00 | 99 | 1008.5 |
| 20260504172218 | 22 | 8 | 0.0 | 0.0 | 0.00 | 0.00 | 0.00 | 99 | 1008.5 |
| 20260504171948 | 22 | 5 | 0.0 | 1.6 | 0.00 | 0.00 | 0.00 | 99 | 1008.6 |
| 20260504171718 | 21 | 5 | 0.0 | 1.6 | 0.00 | 0.00 | 0.00 | 99 | 1008.6 |
| 20260504171448 | 21 | 5 | 0.0 | 3.2 | 0.00 | 0.00 | 0.00 | 99 | 1008.6 |
| 20260504171248 | 21 | 5 | 1.6 | 1.6 | 0.00 | 0.00 | 0.00 | 99 | 1008.6 |
| 20260504171018 | 21 | 5 | 3.2 | 4.8 | 0.00 | 0.00 | 0.00 | 99 | 1008.6 |
| 20260504170748 | 21 | 5 | 1.6 | 1.6 | 0.00 | 0.00 | 0.00 | 99 | 1008.6 |
| 20260504170548 | 21 | 5 | 1.6 | 3.2 | 0.00 | 0.00 | 0.00 | 99 | 1008.7 |
| 20260504170348 | 21 | 5 | 1.6 | 4.8 | 0.00 | 0.00 | 0.00 | 99 | 1008.7 |
| 20260504170148 | 21 | 9 | 3.2 | 4.8 | 0.00 | 0.00 | 0.00 | 99 | 1008.6 |
| 20260504160218 | 20 | 24 | 3.2 | 4.8 | 0.00 | 0.00 | 0.00 | 99 | 1008.8 |
| 20260504151017 | 20 | 254 | 0.0 | 3.2 | 0.00 | 0.00 | 0.00 | 99 | 1008.8 |
| 20260504150817 | 20 | 248 | 0.0 | 0.0 | 0.00 | 0.00 | 0.00 | 99 | 1008.8 |
| 20260504150617 | 20 | 248 | 0.0 | 0.0 | 0.00 | 0.00 | 0.00 | 99 | 1008.8 |
| 20260504150417 | 20 | 248 | 0.0 | 0.0 | 0.00 | 0.00 | 0.00 | 99 | 1008.8 |
| 20260504150147 | 19 | 248 | 0.0 | 0.0 | 0.00 | 0.00 | 0.00 | 99 | 1008.8 |
| 20260504141317 | 16 | 244 | 0.0 | 0.0 | 0.00 | 0.00 | 0.00 | 99 | 1008.4 |
| 20260504141047 | 15 | 244 | 0.0 | 0.0 | 0.00 | 0.00 | 0.00 | 99 | 1008.4 |
| 20260504140847 | 15 | 244 | 0.0 | 0.0 | 0.00 | 0.00 | 0.00 | 99 | 1008.3 |
| 20260504140647 | 15 | 244 | 0.0 | 0.0 | 0.00 | 0.00 | 0.00 | 99 | 1008.3 |
| 20260504140417 | 15 | 244 | 0.0 | 0.0 | 0.00 | 0.00 | 0.00 | 99 | 1008.3 |
| 20260504140147 | 15 | 244 | 0.0 | 0.0 | 0.00 | 0.00 | 0.00 | 99 | 1008.2 |
| 20260504130647 | 13 | 244 | 0.0 | 0.0 | 0.00 | 0.00 | 0.00 | 99 | 1008.0 |
| 20260504130417 | 13 | 244 | 0.0 | 0.0 | 0.00 | 0.00 | 0.00 | 99 | 1007.9 |
| 20260504130217 | 13 | 244 | 0.0 | 0.0 | 0.00 | 0.00 | 0.00 | 99 | 1007.9 |
| 20260504120247 | 13 | 244 | 0.0 | 0.0 | 0.00 | 0.00 | 0.00 | 99 | 1008.0 |
| 20260504110617 | 14 | 244 | 0.0 | 0.0 | 0.00 | 0.00 | 0.00 | 99 | 1007.8 |
| 20260504110417 | 14 | 244 | 0.0 | 0.0 | 0.00 | 0.00 | 0.00 | 99 | 1007.7 |
| 20260504110217 | 14 | 244 | 0.0 | 0.0 | 0.00 | 0.00 | 0.00 | 99 | 1007.7 |
| 20260504100517 | 14 | 244 | 0.0 | 0.0 | 0.00 | 0.00 | 0.00 | 99 | 1007.7 |
| 20260504100317 | 14 | 244 | 0.0 | 0.0 | 0.00 | 0.00 | 0.00 | 99 | 1007.7 |
| 20260504081817 | 16 | 302 | 0.0 | 0.0 | 0.00 | 0.00 | 0.00 | 99 | 1007.4 |
| 20260504081617 | 16 | 302 | 0.0 | 0.0 | 0.00 | 0.00 | 0.00 | 99 | 1007.4 |
| 20260504081347 | 16 | 302 | 0.0 | 0.0 | 0.00 | 0.00 | 0.00 | 99 | 1007.4 |
| 20260504081147 | 16 | 302 | 0.0 | 0.0 | 0.00 | 0.00 | 0.00 | 99 | 1007.4 |
| 20260504080947 | 16 | 302 | 0.0 | 0.0 | 0.00 | 0.00 | 0.00 | 99 | 1007.4 |
| 20260504080717 | 16 | 302 | 0.0 | 0.0 | 0.00 | 0.00 | 0.00 | 99 | 1007.4 |
| 20260504080517 | 16 | 302 | 0.0 | 0.0 | 0.00 | 0.00 | 0.00 | 99 | 1007.4 |
| 20260504080247 | 16 | 302 | 0.0 | 0.0 | 0.00 | 0.00 | 0.00 | 99 | 1007.4 |
| 20260504070247 | 17 | 304 | 0.0 | 0.0 | 0.00 | 0.00 | 0.00 | 99 | 1007.2 |
| 20260504060147 | 19 | 304 | 0.0 | 0.0 | 0.00 | 0.00 | 0.00 | 99 | 1007.1 |
| 20260504050646 | 21 | 304 | 0.0 | 0.0 | 0.00 | 0.00 | 0.00 | 99 | 1007.4 |
| 20260504050416 | 21 | 304 | 0.0 | 0.0 | 0.00 | 0.00 | 0.00 | 99 | 1007.4 |
| 20260504050216 | 21 | 304 | 0.0 | 0.0 | 0.00 | 0.00 | 0.00 | 99 | 1007.4 |
| 20260504050016 | 21 | 304 | 0.0 | 0.0 | 0.00 | 0.00 | 0.00 | 99 | 1007.3 |
| 20260504045816 | 21 | 304 | 0.0 | 0.0 | 0.00 | 0.00 | 0.00 | 99 | 1007.4 |
| 20260504045616 | 21 | 304 | 0.0 | 0.0 | 0.00 | 0.00 | 0.00 | 99 | 1007.3 |
| 20260504045416 | 21 | 304 | 0.0 | 0.0 | 0.00 | 0.00 | 0.00 | 99 | 1007.4 |
| 20260504045216 | 21 | 304 | 0.0 | 0.0 | 0.00 | 0.00 | 0.00 | 99 | 1007.3 |
| 20260504045016 | 21 | 304 | 0.0 | 0.0 | 0.00 | 0.00 | 0.00 | 99 | 1007.3 |
| 20260504044816 | 21 | 304 | 0.0 | 0.0 | 0.00 | 0.00 | 0.00 | 99 | 1007.3 |
| 20260504044546 | 21 | 304 | 0.0 | 0.0 | 0.00 | 0.00 | 0.00 | 99 | 1007.3 |
| 20260504044316 | 21 | 304 | 0.0 | 0.0 | 0.00 | 0.00 | 0.00 | 99 | 1007.3 |
| 20260504044116 | 21 | 304 | 0.0 | 0.0 | 0.00 | 0.00 | 0.00 | 99 | 1007.3 |
| 20260504043846 | 22 | 304 | 0.0 | 0.0 | 0.00 | 0.00 | 0.00 | 99 | 1007.3 |
| 20260504043646 | 22 | 304 | 0.0 | 0.0 | 0.00 | 0.00 | 0.00 | 99 | 1007.3 |
| 20260504043446 | 22 | 304 | 0.0 | 0.0 | 0.00 | 0.00 | 0.00 | 99 | 1007.3 |
| 20260504043246 | 22 | 304 | 0.0 | 0.0 | 0.00 | 0.00 | 0.00 | 99 | 1007.3 |
| 20260504043046 | 22 | 304 | 0.0 | 0.0 | 0.00 | 0.00 | 0.00 | 99 | 1007.4 |
| 20260504042816 | 22 | 304 | 0.0 | 0.0 | 0.00 | 0.00 | 0.00 | 99 | 1007.4 |
| 20260504042546 | 22 | 304 | 0.0 | 0.0 | 0.00 | 0.00 | 0.00 | 99 | 1007.4 |
| 20260504042316 | 22 | 304 | 0.0 | 0.0 | 0.00 | 0.00 | 0.00 | 99 | 1007.3 |
| 20260504042116 | 22 | 304 | 0.0 | 0.0 | 0.00 | 0.00 | 0.00 | 99 | 1007.4 |
| 20260504041916 | 22 | 304 | 0.0 | 0.0 | 0.00 | 0.00 | 0.00 | 99 | 1007.4 |
| 20260504041646 | 23 | 304 | 0.0 | 0.0 | 0.00 | 0.00 | 0.00 | 99 | 1007.3 |
| 20260504041416 | 23 | 304 | 0.0 | 0.0 | 0.00 | 0.00 | 0.00 | 99 | 1007.3 |
| 20260504041216 | 23 | 304 | 0.0 | 1.6 | 0.00 | 0.00 | 0.00 | 99 | 1007.3 |
| 20260504040946 | 23 | 304 | 0.0 | 0.0 | 0.00 | 0.00 | 0.00 | 99 | 1007.3 |
| 20260504040716 | 23 | 302 | 1.6 | 1.6 | 0.00 | 0.00 | 0.00 | 99 | 1007.3 |
| 20260504040516 | 23 | 304 | 0.0 | 0.0 | 0.00 | 0.00 | 0.00 | 99 | 1007.3 |
| 20260504040316 | 23 | 321 | 0.0 | 0.0 | 0.00 | 0.00 | 0.00 | 99 | 1007.3 |
| 20260504040046 | 23 | 321 | 0.0 | 0.0 | 0.00 | 0.00 | 0.00 | 99 | 1007.3 |
| 20260504035816 | 23 | 324 | 1.6 | 3.2 | 0.00 | 0.00 | 0.00 | 99 | 1007.3 |
| 20260504035546 | 23 | 337 | 3.2 | 4.8 | 0.00 | 0.00 | 0.00 | 99 | 1007.3 |
| 20260504035316 | 23 | 261 | 0.0 | 1.6 | 0.00 | 0.00 | 0.00 | 99 | 1007.2 |
| 20260504035116 | 23 | 261 | 0.0 | 0.0 | 0.00 | 0.00 | 0.00 | 99 | 1007.2 |
| 20260504034916 | 23 | 289 | 0.0 | 4.8 | 0.00 | 0.00 | 0.00 | 99 | 1007.3 |
| 20260504034646 | 23 | 304 | 0.0 | 0.0 | 0.00 | 0.00 | 0.00 | 99 | 1007.2 |
| 20260504034446 | 23 | 304 | 0.0 | 0.0 | 0.00 | 0.00 | 0.00 | 99 | 1007.3 |
| 20260504034246 | 23 | 304 | 0.0 | 0.0 | 0.00 | 0.00 | 0.00 | 99 | 1007.2 |
| 20260504034046 | 23 | 304 | 0.0 | 0.0 | 0.00 | 0.00 | 0.00 | 99 | 1007.3 |
| 20260504033846 | 23 | 304 | 0.0 | 0.0 | 0.00 | 0.00 | 0.00 | 99 | 1007.3 |
| 20260504033616 | 23 | 304 | 0.0 | 0.0 | 0.00 | 0.00 | 0.00 | 99 | 1007.3 |
| 20260504033416 | 23 | 304 | 0.0 | 0.0 | 0.00 | 0.00 | 0.00 | 99 | 1007.3 |
| 20260504033216 | 23 | 327 | 1.6 | 4.8 | 0.00 | 0.00 | 0.00 | 99 | 1007.3 |
| 20260504032946 | 23 | 241 | 0.0 | 0.0 | 0.00 | 0.00 | 0.00 | 99 | 1007.3 |
| 20260504032716 | 24 | 309 | 0.0 | 0.0 | 0.00 | 0.00 | 0.00 | 99 | 1007.3 |
| 20260504032446 | 24 | 308 | 0.0 | 0.0 | 0.00 | 0.00 | 0.00 | 99 | 1007.3 |
| 20260504032216 | 24 | 334 | 0.0 | 0.0 | 0.00 | 0.00 | 0.00 | 99 | 1007.3 |
| 20260504031946 | 24 | 359 | 0.0 | 3.2 | 0.00 | 0.00 | 0.00 | 99 | 1007.3 |
| 20260504031746 | 24 | 339 | 0.0 | 1.6 | 0.00 | 0.00 | 0.00 | 99 | 1007.3 |
| 20260504031546 | 24 | 339 | 0.0 | 0.0 | 0.00 | 0.00 | 0.00 | 99 | 1007.3 |
| 20260504031346 | 24 | 342 | 0.0 | 0.0 | 0.00 | 0.00 | 0.00 | 99 | 1007.3 |
| 20260504031146 | 24 | 344 | 0.0 | 0.0 | 0.00 | 0.00 | 0.00 | 99 | 1007.3 |
| 20260504030946 | 24 | 343 | 0.0 | 0.0 | 0.00 | 0.00 | 0.00 | 99 | 1007.3 |
| 20260504030716 | 24 | 343 | 0.0 | 0.0 | 0.00 | 0.00 | 0.00 | 99 | 1007.3 |
| 20260504030516 | 25 | 343 | 0.0 | 0.0 | 0.00 | 0.00 | 0.00 | 99 | 1007.3 |
| 20260504030316 | 25 | 344 | 0.0 | 0.0 | 0.00 | 0.00 | 0.00 | 99 | 1007.3 |
| 20260504030116 | 25 | 344 | 0.0 | 0.0 | 0.00 | 0.00 | 0.00 | 99 | 1007.3 |
| 20260504025916 | 25 | 344 | 0.0 | 3.2 | 0.00 | 0.00 | 0.00 | 99 | 1007.3 |
| 20260504025716 | 25 | 328 | 0.0 | 1.6 | 0.00 | 0.00 | 0.00 | 99 | 1007.3 |
| 20260504025446 | 25 | 329 | 0.0 | 0.0 | 0.00 | 0.00 | 0.00 | 99 | 1007.4 |
| 20260504025246 | 25 | 329 | 0.0 | 0.0 | 0.00 | 0.00 | 0.00 | 99 | 1007.4 |
| 20260504025016 | 25 | 329 | 1.6 | 0.0 | 0.00 | 0.00 | 0.00 | 99 | 1007.4 |
| 20260504024816 | 25 | 331 | 0.0 | 4.8 | 0.00 | 0.00 | 0.00 | 99 | 1007.4 |
| 20260504024616 | 25 | 331 | 0.0 | 0.0 | 0.00 | 0.00 | 0.00 | 99 | 1007.4 |
| 20260504024416 | 25 | 313 | 0.0 | 1.6 | 0.00 | 0.00 | 0.00 | 99 | 1007.4 |
| 20260504024216 | 25 | 309 | 1.6 | 4.8 | 0.00 | 0.00 | 0.00 | 99 | 1007.4 |
| 20260504023946 | 25 | 304 | 0.0 | 3.2 | 0.00 | 0.00 | 0.00 | 99 | 1007.4 |
| 20260504023746 | 25 | 304 | 1.6 | 4.8 | 0.00 | 0.00 | 0.00 | 99 | 1007.4 |
| 20260504023516 | 25 | 302 | 3.2 | 4.8 | 0.00 | 0.00 | 0.00 | 99 | 1007.4 |
| 20260504023316 | 26 | 351 | 0.0 | 4.8 | 0.00 | 0.00 | 0.00 | 99 | 1007.4 |
| 20260504023116 | 26 | 349 | 0.0 | 1.6 | 0.00 | 0.00 | 0.00 | 99 | 1007.4 |
| 20260504022916 | 26 | 348 | 1.6 | 3.2 | 0.00 | 0.00 | 0.00 | 99 | 1007.4 |
| 20260504022646 | 26 | 311 | 1.6 | 4.8 | 0.00 | 0.00 | 0.00 | 99 | 1007.5 |
| 20260504022446 | 26 | 337 | 3.2 | 8.0 | 0.00 | 0.00 | 0.00 | 99 | 1007.5 |
| 20260504022246 | 26 | 336 | 0.0 | 0.0 | 0.00 | 0.00 | 0.00 | 99 | 1007.5 |
| 20260504022016 | 26 | 336 | 0.0 | 0.0 | 0.00 | 0.00 | 0.00 | 99 | 1007.5 |
| 20260504021816 | 26 | 336 | 0.0 | 0.0 | 0.00 | 0.00 | 0.00 | 99 | 1007.5 |
| 20260504021546 | 26 | 252 | 1.6 | 9.7 | 0.00 | 0.00 | 0.00 | 99 | 1007.5 |
| 20260504021316 | 26 | 273 | 3.2 | 12.9 | 0.00 | 0.00 | 0.00 | 99 | 1007.5 |
| 20260504021116 | 26 | 39 | 1.6 | 3.2 | 0.00 | 0.00 | 0.00 | 99 | 1007.6 |
| 20260504020916 | 26 | 137 | 1.6 | 4.8 | 0.00 | 0.00 | 0.00 | 99 | 1007.6 |
| 20260504020646 | 26 | 238 | 1.6 | 9.7 | 0.00 | 0.00 | 0.00 | 99 | 1007.6 |
| 20260504020446 | 26 | 335 | 1.6 | 3.2 | 0.00 | 0.00 | 0.00 | 99 | 1007.6 |
| 20260504020246 | 26 | 333 | 0.0 | 1.6 | 0.00 | 0.00 | 0.00 | 99 | 1007.7 |
| 20260504020046 | 26 | 270 | 3.2 | 11.3 | 0.00 | 0.00 | 0.00 | 99 | 1007.7 |
| 20260504015816 | 26 | 266 | 1.6 | 8.0 | 0.00 | 0.00 | 0.00 | 99 | 1007.7 |
| 20260504015546 | 26 | 330 | 0.0 | 4.8 | 0.00 | 0.00 | 0.00 | 99 | 1007.7 |
| 20260504015316 | 26 | 342 | 1.6 | 3.2 | 0.00 | 0.00 | 0.00 | 99 | 1007.7 |
| 20260504015046 | 26 | 327 | 4.8 | 12.9 | 0.00 | 0.00 | 0.00 | 99 | 1007.7 |
| 20260504014846 | 26 | 334 | 1.6 | 4.8 | 0.00 | 0.00 | 0.00 | 99 | 1007.7 |
| 20260504014616 | 26 | 330 | 3.2 | 9.7 | 0.00 | 0.00 | 0.00 | 99 | 1007.7 |
| 20260504014416 | 26 | 5 | 0.0 | 0.0 | 0.00 | 0.00 | 0.00 | 99 | 1007.8 |
| 20260504014146 | 26 | 5 | 3.2 | 4.8 | 0.00 | 0.00 | 0.00 | 99 | 1007.9 |
| 20260504013916 | 26 | 351 | 4.8 | 8.0 | 0.00 | 0.00 | 0.00 | 99 | 1007.9 |
| 20260504013646 | 26 | 4 | 3.2 | 4.8 | 0.00 | 0.00 | 0.00 | 99 | 1007.9 |
| 20260504013446 | 27 | 12 | 4.8 | 8.0 | 0.00 | 0.00 | 0.00 | 99 | 1007.9 |
| 20260504013216 | 27 | 24 | 1.6 | 3.2 | 0.00 | 0.00 | 0.00 | 99 | 1007.9 |
| 20260504013016 | 27 | 5 | 1.6 | 8.0 | 0.00 | 0.00 | 0.00 | 99 | 1007.9 |
| 20260504012746 | 27 | 340 | 3.2 | 4.8 | 0.00 | 0.00 | 0.00 | 99 | 1007.9 |
| 20260504012516 | 27 | 4 | 3.2 | 4.8 | 0.00 | 0.00 | 0.00 | 99 | 1008.0 |
| 20260504012316 | 27 | 288 | 3.2 | 8.0 | 0.00 | 0.00 | 0.00 | 99 | 1008.0 |
| 20260504012116 | 27 | 314 | 4.8 | 9.7 | 0.00 | 0.00 | 0.00 | 99 | 1008.0 |
| 20260504011846 | 27 | 355 | 0.0 | 3.2 | 0.00 | 0.00 | 0.00 | 99 | 1008.1 |
| 20260504011646 | 27 | 355 | 0.0 | 1.6 | 0.00 | 0.00 | 0.00 | 99 | 1008.1 |
| 20260504011446 | 27 | 355 | 3.2 | 4.8 | 0.00 | 0.00 | 0.00 | 99 | 1008.1 |
| 20260504011246 | 27 | 293 | 1.6 | 4.8 | 0.00 | 0.00 | 0.00 | 99 | 1008.1 |
| 20260504011016 | 27 | 341 | 4.8 | 8.0 | 0.00 | 0.00 | 0.00 | 99 | 1008.2 |
| 20260504010816 | 27 | 342 | 1.6 | 4.8 | 0.00 | 0.00 | 0.00 | 99 | 1008.2 |
| 20260504010546 | 26 | 355 | 1.6 | 4.8 | 0.00 | 0.00 | 0.00 | 99 | 1008.3 |
| 20260504010346 | 26 | 5 | 3.2 | 9.7 | 0.00 | 0.00 | 0.00 | 99 | 1008.3 |
| 20260504010146 | 26 | 347 | 4.8 | 9.7 | 0.00 | 0.00 | 0.00 | 99 | 1008.3 |
| 20260504005946 | 26 | 319 | 4.8 | 4.8 | 0.00 | 0.00 | 0.00 | 99 | 1008.3 |
| 20260504005716 | 26 | 317 | 3.2 | 9.7 | 0.00 | 0.00 | 0.00 | 99 | 1008.4 |
| 20260504005446 | 26 | 5 | 4.8 | 11.3 | 0.00 | 0.00 | 0.00 | 99 | 1008.4 |
| 20260504005246 | 26 | 341 | 3.2 | 4.8 | 0.00 | 0.00 | 0.00 | 99 | 1008.4 |
| 20260504005046 | 26 | 336 | 4.8 | 11.3 | 0.00 | 0.00 | 0.00 | 99 | 1008.4 |
| 20260504004846 | 26 | 12 | 3.2 | 4.8 | 0.00 | 0.00 | 0.00 | 99 | 1008.5 |
| 20260504004646 | 26 | 4 | 4.8 | 4.8 | 0.00 | 0.00 | 0.00 | 99 | 1008.5 |
| 20260504004446 | 26 | 16 | 3.2 | 8.0 | 0.00 | 0.00 | 0.00 | 99 | 1008.5 |
| 20260504004246 | 26 | 5 | 3.2 | 4.8 | 0.00 | 0.00 | 0.00 | 99 | 1008.6 |
| 20260504004046 | 26 | 3 | 8.0 | 9.7 | 0.00 | 0.00 | 0.00 | 99 | 1008.6 |
| 20260504003846 | 26 | 11 | 4.8 | 4.8 | 0.00 | 0.00 | 0.00 | 99 | 1008.6 |
| 20260504003616 | 26 | 0 | 8.0 | 9.7 | 0.00 | 0.00 | 0.00 | 99 | 1008.6 |
| 20260504003416 | 26 | 5 | 4.8 | 4.8 | 0.00 | 0.00 | 0.00 | 99 | 1008.6 |
| 20260504003146 | 26 | 2 | 4.8 | 8.0 | 0.00 | 0.00 | 0.00 | 99 | 1008.7 |
| 20260504002946 | 26 | 12 | 4.8 | 8.0 | 0.00 | 0.00 | 0.00 | 99 | 1008.7 |
| 20260504002746 | 26 | 2 | 8.0 | 12.9 | 0.00 | 0.00 | 0.00 | 99 | 1008.7 |
| 20260504002546 | 26 | 2 | 4.8 | 4.8 | 0.00 | 0.00 | 0.00 | 99 | 1008.7 |
| 20260504002346 | 26 | 9 | 4.8 | 8.0 | 0.00 | 0.00 | 0.00 | 99 | 1008.7 |
| 20260504002146 | 26 | 5 | 8.0 | 8.0 | 0.00 | 0.00 | 0.00 | 99 | 1008.8 |
| 20260504001916 | 26 | 5 | 3.2 | 9.7 | 0.00 | 0.00 | 0.00 | 99 | 1008.7 |
| 20260504001716 | 26 | 358 | 4.8 | 9.7 | 0.00 | 0.00 | 0.00 | 99 | 1008.7 |
| 20260504001516 | 26 | 7 | 4.8 | 4.8 | 0.00 | 0.00 | 0.00 | 99 | 1008.8 |
| 20260504001246 | 26 | 2 | 4.8 | 4.8 | 0.00 | 0.00 | 0.00 | 99 | 1008.8 |
| 20260504001046 | 26 | 10 | 4.8 | 8.0 | 0.00 | 0.00 | 0.00 | 99 | 1008.8 |
| 20260504000846 | 26 | 10 | 4.8 | 8.0 | 0.00 | 0.00 | 0.00 | 99 | 1008.8 |
| 20260504000646 | 26 | 20 | 4.8 | 4.8 | 0.00 | 0.00 | 0.00 | 99 | 1008.9 |
| 20260504000446 | 26 | 3 | 4.8 | 8.0 | 0.00 | 0.00 | 0.00 | 99 | 1008.9 |
| 20260504000246 | 26 | 20 | 3.2 | 4.8 | 0.00 | 0.00 | 0.00 | 99 | 1008.9 |
| 20260504000046 | 26 | 0 | 4.8 | 8.0 | 0.00 | 0.00 | 0.00 | 99 | 1008.9 |
| 20260503235846 | 26 | 22 | 3.2 | 4.8 | 0.00 | 0.00 | 0.00 | 99 | 1008.9 |
| 20260503235646 | 26 | 17 | 3.2 | 4.8 | 0.00 | 0.00 | 0.00 | 99 | 1009.0 |
| 20260503235446 | 26 | 5 | 3.2 | 4.8 | 0.00 | 0.00 | 0.00 | 99 | 1009.0 |
| 20260503235216 | 26 | 343 | 3.2 | 4.8 | 0.00 | 0.00 | 0.00 | 99 | 1009.1 |
| 20260503235016 | 25 | 353 | 3.2 | 4.8 | 0.00 | 0.00 | 0.00 | 99 | 1009.1 |
| 20260503234816 | 26 | 6 | 4.8 | 8.0 | 0.00 | 0.00 | 0.00 | 99 | 1009.1 |
| 20260503234546 | 25 | 353 | 4.8 | 4.8 | 0.00 | 0.00 | 0.00 | 99 | 1009.2 |
| 20260503234346 | 25 | 17 | 4.8 | 8.0 | 0.00 | 0.00 | 0.00 | 99 | 1009.1 |
| 20260503234146 | 25 | 4 | 4.8 | 8.0 | 0.00 | 0.00 | 0.00 | 99 | 1009.1 |
| 20260503233946 | 25 | 6 | 8.0 | 8.0 | 0.00 | 0.00 | 0.00 | 99 | 1009.2 |
| 20260503233746 | 25 | 6 | 4.8 | 4.8 | 0.00 | 0.00 | 0.00 | 99 | 1009.1 |
| 20260503233546 | 25 | 9 | 4.8 | 8.0 | 0.00 | 0.00 | 0.00 | 99 | 1009.2 |
| 20260503233346 | 25 | 8 | 3.2 | 8.0 | 0.00 | 0.00 | 0.00 | 99 | 1009.2 |
| 20260503233145 | 25 | 8 | 4.8 | 8.0 | 0.00 | 0.00 | 0.00 | 99 | 1009.2 |
| 20260503232945 | 25 | 4 | 4.8 | 8.0 | 0.00 | 0.00 | 0.00 | 99 | 1009.2 |
| 20260503232746 | 26 | 12 | 4.8 | 4.8 | 0.00 | 0.00 | 0.00 | 99 | 1009.3 |
| 20260503232545 | 26 | 12 | 4.8 | 8.0 | 0.00 | 0.00 | 0.00 | 99 | 1009.3 |
| 20260503232315 | 26 | 14 | 3.2 | 8.0 | 0.00 | 0.00 | 0.00 | 99 | 1009.3 |
| 20260503232115 | 26 | 14 | 4.8 | 4.8 | 0.00 | 0.00 | 0.00 | 99 | 1009.3 |
| 20260503231915 | 26 | 4 | 4.8 | 8.0 | 0.00 | 0.00 | 0.00 | 99 | 1009.4 |
| 20260503231715 | 26 | 10 | 4.8 | 4.8 | 0.00 | 0.00 | 0.00 | 99 | 1009.4 |
| 20260503231445 | 26 | 3 | 4.8 | 4.8 | 0.00 | 0.00 | 0.00 | 99 | 1009.4 |
| 20260503231245 | 26 | 15 | 3.2 | 4.8 | 0.00 | 0.00 | 0.00 | 99 | 1009.5 |
| 20260503231015 | 26 | 358 | 4.8 | 8.0 | 0.00 | 0.00 | 0.00 | 99 | 1009.5 |
| 20260503230815 | 26 | 352 | 4.8 | 4.8 | 0.00 | 0.00 | 0.00 | 99 | 1009.5 |
| 20260503230545 | 26 | 10 | 4.8 | 8.0 | 0.00 | 0.00 | 0.00 | 99 | 1009.6 |
| 20260503230345 | 26 | 4 | 8.0 | 9.7 | 0.00 | 0.00 | 0.00 | 99 | 1009.6 |
| 20260503230115 | 26 | 20 | 4.8 | 8.0 | 0.00 | 0.00 | 0.00 | 99 | 1009.6 |
| 20260503225915 | 26 | 358 | 4.8 | 8.0 | 0.00 | 0.00 | 0.00 | 99 | 1009.6 |
| 20260503225715 | 25 | 6 | 4.8 | 8.0 | 0.00 | 0.00 | 0.00 | 99 | 1009.7 |
| 20260503225445 | 25 | 4 | 4.8 | 9.7 | 0.00 | 0.00 | 0.00 | 99 | 1009.7 |
| 20260503225245 | 25 | 10 | 4.8 | 4.8 | 0.00 | 0.00 | 0.00 | 99 | 1009.7 |
| 20260503225045 | 25 | 4 | 3.2 | 8.0 | 0.00 | 0.00 | 0.00 | 99 | 1009.7 |
| 20260503224845 | 25 | 19 | 4.8 | 4.8 | 0.00 | 0.00 | 0.00 | 99 | 1009.7 |
| 20260503224645 | 25 | 358 | 4.8 | 8.0 | 0.00 | 0.00 | 0.00 | 99 | 1009.8 |
| 20260503224415 | 25 | 356 | 4.8 | 8.0 | 0.00 | 0.00 | 0.00 | 99 | 1009.8 |
| 20260503224145 | 25 | 2 | 4.8 | 9.7 | 0.00 | 0.00 | 0.00 | 99 | 1009.8 |
| 20260503223945 | 25 | 16 | 8.0 | 9.7 | 0.00 | 0.00 | 0.00 | 99 | 1009.9 |
| 20260503223715 | 25 | 11 | 4.8 | 8.0 | 0.00 | 0.00 | 0.00 | 99 | 1009.9 |
| 20260503223515 | 25 | 18 | 8.0 | 8.0 | 0.00 | 0.00 | 0.00 | 99 | 1009.9 |
| 20260503223245 | 25 | 9 | 4.8 | 8.0 | 0.00 | 0.00 | 0.00 | 99 | 1009.9 |
| 20260503223045 | 25 | 7 | 8.0 | 8.0 | 0.00 | 0.00 | 0.00 | 99 | 1010.0 |
| 20260503222815 | 25 | 6 | 8.0 | 9.7 | 0.00 | 0.00 | 0.00 | 99 | 1010.0 |
| 20260503222545 | 25 | 7 | 3.2 | 8.0 | 0.00 | 0.00 | 0.00 | 99 | 1010.1 |
| 20260503222315 | 25 | 357 | 4.8 | 8.0 | 0.00 | 0.00 | 0.00 | 99 | 1010.1 |
| 20260503222046 | 25 | 357 | 4.8 | 9.7 | 0.00 | 0.00 | 0.00 | 99 | 1010.3 |
| 20260503221815 | 25 | 340 | 8.0 | 8.0 | 0.00 | 0.00 | 0.00 | 99 | 1010.3 |
| 20260503221545 | 25 | 0 | 8.0 | 9.7 | 0.00 | 0.00 | 0.00 | 99 | 1010.4 |
| 20260503221315 | 25 | 359 | 9.7 | 9.7 | 0.00 | 0.00 | 0.00 | 99 | 1010.4 |
| 20260503221115 | 25 | 21 | 8.0 | 8.0 | 0.00 | 0.00 | 0.00 | 99 | 1010.4 |
| 20260503220915 | 25 | 359 | 3.2 | 9.7 | 0.00 | 0.00 | 0.00 | 99 | 1010.4 |
| 20260503220715 | 25 | 8 | 1.6 | 4.8 | 0.00 | 0.00 | 0.00 | 99 | 1010.5 |
| 20260503220515 | 25 | 7 | 4.8 | 9.7 | 0.00 | 0.00 | 0.00 | 99 | 1010.5 |
| 20260503220315 | 25 | 341 | 4.8 | 9.7 | 0.00 | 0.00 | 0.00 | 99 | 1010.5 |
| 20260503220115 | 25 | 8 | 4.8 | 9.7 | 0.00 | 0.00 | 0.00 | 99 | 1010.5 |
| 20260503215915 | 25 | 329 | 8.0 | 4.8 | 0.00 | 0.00 | 0.00 | 99 | 1010.6 |
| 20260503215645 | 25 | 350 | 8.0 | 9.7 | 0.00 | 0.00 | 0.00 | 99 | 1010.5 |
| 20260503215445 | 25 | 348 | 8.0 | 12.9 | 0.00 | 0.00 | 0.00 | 99 | 1010.6 |
| 20260503215245 | 25 | 357 | 8.0 | 11.3 | 0.00 | 0.00 | 0.00 | 99 | 1010.6 |
| 20260503215045 | 25 | 355 | 8.0 | 9.7 | 0.00 | 0.00 | 0.00 | 99 | 1010.6 |
| 20260503214815 | 25 | 13 | 8.0 | 8.0 | 0.00 | 0.00 | 0.00 | 99 | 1010.6 |
| 20260503214615 | 25 | 352 | 4.8 | 8.0 | 0.00 | 0.00 | 0.00 | 99 | 1010.6 |
| 20260503214415 | 25 | 25 | 4.8 | 8.0 | 0.00 | 0.00 | 0.00 | 99 | 1010.6 |
| 20260503214145 | 24 | 12 | 4.8 | 9.7 | 0.00 | 0.00 | 0.00 | 99 | 1010.7 |
| 20260503213915 | 24 | 3 | 8.0 | 11.3 | 0.00 | 0.00 | 0.00 | 99 | 1010.7 |
| 20260503213715 | 24 | 18 | 8.0 | 8.0 | 0.00 | 0.00 | 0.00 | 99 | 1010.7 |
| 20260503213515 | 24 | 2 | 4.8 | 9.7 | 0.00 | 0.00 | 0.00 | 99 | 1010.7 |
| 20260503213315 | 24 | 0 | 8.0 | 9.7 | 0.00 | 0.00 | 0.00 | 99 | 1010.7 |
| 20260503213115 | 24 | 354 | 8.0 | 9.7 | 0.00 | 0.00 | 0.00 | 99 | 1010.7 |
| 20260503212915 | 24 | 1 | 8.0 | 8.0 | 0.00 | 0.00 | 0.00 | 99 | 1010.7 |
| 20260503212715 | 24 | 8 | 3.2 | 8.0 | 0.00 | 0.00 | 0.00 | 99 | 1010.8 |
| 20260503212515 | 24 | 356 | 4.8 | 9.7 | 0.00 | 0.00 | 0.00 | 99 | 1010.7 |
| 20260503212245 | 24 | 333 | 4.8 | 4.8 | 0.00 | 0.00 | 0.00 | 99 | 1010.8 |
| 20260503212015 | 24 | 341 | 4.8 | 8.0 | 0.00 | 0.00 | 0.00 | 99 | 1010.8 |
| 20260503211745 | 24 | 10 | 4.8 | 8.0 | 0.00 | 0.00 | 0.00 | 99 | 1010.8 |
| 20260503211545 | 23 | 359 | 3.2 | 4.8 | 0.00 | 0.00 | 0.00 | 99 | 1010.8 |
| 20260503211345 | 23 | 5 | 4.8 | 8.0 | 0.00 | 0.00 | 0.00 | 99 | 1010.8 |
| 20260503211115 | 23 | 16 | 4.8 | 9.7 | 0.00 | 0.00 | 0.00 | 99 | 1010.9 |
| 20260503210915 | 23 | 23 | 3.2 | 4.8 | 0.00 | 0.00 | 0.00 | 99 | 1010.9 |
| 20260503210645 | 23 | 3 | 4.8 | 4.8 | 0.00 | 0.00 | 0.00 | 99 | 1010.9 |
| 20260503210445 | 23 | 338 | 4.8 | 9.7 | 0.00 | 0.00 | 0.00 | 99 | 1011.0 |
| 20260503210245 | 23 | 14 | 8.0 | 9.7 | 0.00 | 0.00 | 0.00 | 99 | 1011.0 |
| 20260503210015 | 23 | 356 | 4.8 | 8.0 | 0.00 | 0.00 | 0.00 | 99 | 1011.0 |
| 20260503205745 | 23 | 346 | 4.8 | 8.0 | 0.00 | 0.00 | 0.00 | 99 | 1011.1 |
| 20260503205545 | 23 | 350 | 4.8 | 9.7 | 0.00 | 0.00 | 0.00 | 99 | 1011.1 |
| 20260503205315 | 23 | 352 | 4.8 | 9.7 | 0.00 | 0.00 | 0.00 | 99 | 1011.1 |
| 20260503205115 | 23 | 2 | 8.0 | 9.7 | 0.00 | 0.00 | 0.00 | 99 | 1011.1 |
| 20260503204845 | 23 | 3 | 8.0 | 11.3 | 0.00 | 0.00 | 0.00 | 99 | 1011.2 |
| 20260503204615 | 23 | 16 | 4.8 | 4.8 | 0.00 | 0.00 | 0.00 | 99 | 1011.2 |
| 20260503204345 | 23 | 18 | 8.0 | 8.0 | 0.00 | 0.00 | 0.00 | 99 | 1011.3 |
| 20260503204145 | 23 | 21 | 8.0 | 11.3 | 0.00 | 0.00 | 0.00 | 99 | 1011.3 |
| 20260503203945 | 23 | 15 | 9.7 | 11.3 | 0.00 | 0.00 | 0.00 | 99 | 1011.3 |
| 20260503203745 | 23 | 1 | 9.7 | 11.3 | 0.00 | 0.00 | 0.00 | 99 | 1011.3 |
| 20260503203515 | 23 | 4 | 8.0 | 14.5 | 0.00 | 0.00 | 0.00 | 99 | 1011.3 |
| 20260503203315 | 23 | 357 | 9.7 | 12.9 | 0.00 | 0.00 | 0.00 | 99 | 1011.3 |